JE9BHE-13 Weather Reports


time (UTC)temp
F
wind
direction
speed
knots
gust
knots
rain 1hr
in
rain 24hr
in
rain mn
in
humidity
%
barometer
mb
20260508231507 56 69 1.7 5.2 0.00 0.31 0.25 76 1020.0
20260508231207 56 73 1.7 5.2 0.00 0.31 0.25 77 1019.9
20260508230606 55 88 1.7 3.5 0.00 0.31 0.25 80 1020.1
20260508230007 56 85 0.9 3.5 0.00 0.31 0.25 79 1019.9
20260508225706 55 77 1.7 3.5 0.00 0.31 0.25 80 1020.1
20260508225407 55 76 1.7 3.5 0.00 0.31 0.25 83 1020.0
20260508225106 54 70 0.9 3.5 0.00 0.31 0.25 82 1020.0
20260508224507 54 67 1.7 3.5 0.00 0.31 0.25 83 1019.9
20260508224207 54 64 1.7 3.5 0.00 0.31 0.25 83 1019.9
20260508223906 54 66 0.9 3.5 0.00 0.31 0.25 85 1020.1
20260508223606 53 68 0.9 5.2 0.00 0.31 0.25 86 1020.0
20260508223306 53 79 0.9 5.2 0.00 0.31 0.25 86 1020.0
20260508223007 53 83 1.7 5.2 0.00 0.31 0.25 87 1019.9
20260508222707 53 82 1.7 5.2 0.00 0.31 0.25 88 1020.0
20260508222106 52 84 3.5 3.5 0.00 0.31 0.25 90 1020.1
20260508221807 52 87 1.7 3.5 0.00 0.31 0.25 91 1020.0
20260508221506 52 88 1.7 1.7 0.00 0.31 0.25 91 1020.1
20260508221207 52 84 1.7 1.7 0.00 0.31 0.25 91 1020.0
20260508220907 52 84 0.0 1.7 0.00 0.31 0.25 92 1020.0
20260508220606 52 86 0.9 1.7 0.00 0.31 0.25 92 1020.0
20260508220306 52 86 1.7 1.7 0.00 0.31 0.25 92 1019.7
20260508220008 52 87 1.7 1.7 0.00 0.31 0.25 92 1019.8
20260508215706 52 87 1.7 1.7 0.00 0.31 0.25 92 1019.8
20260508215406 52 88 1.7 1.7 0.00 0.31 0.25 91 1019.7
20260508215106 52 86 0.0 1.7 0.00 0.31 0.25 91 1019.9
20260508214206 52 94 0.0 1.7 0.00 0.31 0.25 89 1019.9
20260508213606 51 112 0.0 1.7 0.00 0.31 0.25 88 1019.8
20260508213306 52 118 0.9 1.7 0.01 0.31 0.25 89 1019.8
20260508213006 52 118 0.9 1.7 0.01 0.31 0.25 89 1019.9
20260508212707 52 116 0.9 1.7 0.01 0.31 0.25 89 1019.9
20260508212408 51 97 1.7 1.7 0.01 0.31 0.25 89 1020.0
20260508212106 51 98 0.0 1.7 0.01 0.31 0.25 89 1019.7
20260508211806 51 107 0.9 3.5 0.02 0.31 0.25 89 1019.7
20260508211507 52 111 0.9 3.5 0.02 0.31 0.25 90 1019.7
20260508211206 52 118 1.7 3.5 0.04 0.31 0.25 90 1019.7
20260508210906 52 119 1.7 3.5 0.04 0.31 0.25 89 1019.4
20260508210606 51 122 1.7 3.5 0.07 0.31 0.25 90 1019.5
20260508210007 51 143 1.7 6.1 0.09 0.31 0.25 90 1019.4
20260508205706 51 142 2.6 9.6 0.09 0.31 0.25 90 1019.2
20260508205406 51 148 2.6 9.6 0.09 0.31 0.25 91 1019.5
20260508205107 51 148 4.3 9.6 0.09 0.31 0.25 91 1019.3
20260508204807 51 149 2.6 7.8 0.09 0.31 0.25 92 1019.0
20260508204507 51 146 4.3 7.8 0.09 0.31 0.25 92 1019.0
20260508204206 51 152 4.3 7.8 0.09 0.31 0.25 93 1018.6
20260508203907 51 156 4.3 9.6 0.09 0.31 0.25 93 1018.7
20260508203306 51 155 6.1 9.6 0.09 0.30 0.24 94 1018.6
20260508203006 51 147 6.1 9.6 0.09 0.30 0.24 95 1018.5
20260508202707 51 144 3.5 7.8 0.11 0.30 0.24 96 1018.2
20260508202407 51 138 3.5 7.8 0.11 0.30 0.24 96 1018.1
20260508201806 51 151 3.5 7.0 0.09 0.28 0.22 97 1018.1
20260508201506 51 161 3.5 7.0 0.09 0.28 0.22 95 1017.9
20260508201207 51 161 3.5 7.8 0.08 0.27 0.21 95 1018.1
20260508200906 51 154 3.5 9.6 0.09 0.27 0.21 95 1017.9
20260508200606 51 153 3.5 11.3 0.06 0.24 0.18 94 1017.8
20260508200306 51 151 5.2 11.3 0.05 0.22 0.17 92 1017.6
20260508195706 51 143 6.1 11.3 0.05 0.21 0.15 91 1017.2
20260508195106 51 123 6.1 9.6 0.06 0.21 0.15 90 1017.0
20260508194806 51 114 5.2 9.6 0.06 0.21 0.15 90 1017.2
20260508193907 51 118 6.1 9.6 0.06 0.21 0.15 90 1016.8
20260508193606 51 127 5.2 9.6 0.07 0.21 0.15 90 1017.0
20260508193306 51 130 5.2 7.8 0.06 0.20 0.14 90 1016.9
20260508193007 51 128 3.5 7.8 0.05 0.19 0.13 89 1016.7
20260508192706 51 126 1.7 9.6 0.05 0.19 0.13 90 1016.4
20260508192407 51 116 5.2 9.6 0.05 0.19 0.13 90 1016.4
20260508192106 51 113 3.5 9.6 0.05 0.19 0.13 90 1016.4
20260508191806 51 111 6.1 9.6 0.05 0.19 0.13 90 1016.5
20260508191507 51 111 2.6 7.8 0.05 0.19 0.13 89 1016.3
20260508190907 51 123 3.5 7.8 0.04 0.18 0.12 89 1016.1
20260508190606 51 122 3.5 7.8 0.05 0.18 0.12 88 1016.0
20260508190306 51 119 4.3 7.8 0.05 0.18 0.12 89 1016.2
20260508190006 51 120 2.6 6.1 0.06 0.18 0.12 87 1016.2
20260508185706 51 121 3.5 9.6 0.07 0.17 0.11 86 1016.0
20260508185408 51 123 3.5 9.6 0.07 0.17 0.11 87 1015.8
20260508184506 52 115 1.7 7.8 0.07 0.15 0.09 86 1015.8
20260508184207 52 117 2.6 7.8 0.08 0.15 0.09 84 1015.6
20260508183907 52 119 3.5 7.8 0.09 0.15 0.09 84 1015.1
20260508183607 52 113 1.7 7.8 0.08 0.14 0.08 86 1015.4
20260508183306 51 110 4.3 6.1 0.08 0.14 0.08 83 1015.2
20260508183006 51 108 2.6 6.1 0.08 0.14 0.08 86 1015.4
20260508182706 51 101 2.6 5.2 0.08 0.14 0.08 87 1015.2
20260508182407 51 107 2.6 5.2 0.08 0.14 0.08 87 1015.4
20260508182108 51 113 2.6 5.2 0.08 0.14 0.08 87 1015.2
20260508181807 51 110 0.9 3.5 0.08 0.14 0.08 87 1015.0
20260508181506 51 107 1.7 3.5 0.08 0.14 0.08 87 1015.2
20260508181207 51 116 1.7 3.5 0.08 0.14 0.08 87 1014.9
20260508180606 52 127 2.6 3.5 0.07 0.13 0.07 86 1015.2
20260508180306 52 131 1.7 3.5 0.07 0.13 0.07 85 1015.2
20260508180006 52 138 1.7 3.5 0.05 0.11 0.05 85 1015.1
20260508175406 52 116 0.9 3.5 0.04 0.09 0.04 83 1014.9
20260508175107 52 116 1.7 5.2 0.04 0.09 0.04 80 1015.1
20260508174807 53 113 1.7 7.8 0.04 0.09 0.04 82 1014.9
20260508173907 54 118 3.5 13.9 0.00 0.06 0.00 73 1014.4
20260508173605 55 123 5.2 13.9 0.00 0.06 0.00 71 1014.2
20260508173306 56 116 4.3 13.9 0.00 0.06 0.00 70 1014.2
20260508173006 56 115 7.0 9.6 0.00 0.06 0.00 64 1014.1
20260508172706 56 115 3.5 7.8 0.00 0.06 0.00 63 1013.7
20260508172407 56 115 3.5 9.6 0.00 0.06 0.00 63 1014.2
20260508171807 57 131 3.5 11.3 0.00 0.06 0.00 61 1013.9
20260508171507 57 131 3.5 11.3 0.00 0.06 0.00 62 1014.0
20260508171207 56 120 5.2 11.3 0.00 0.06 0.00 62 1014.0
20260508170906 55 121 6.1 11.3 0.00 0.06 0.00 63 1014.2
20260508170606 57 134 3.5 11.3 0.00 0.06 0.00 64 1013.9
20260508170306 57 141 3.5 11.3 0.00 0.06 0.00 61 1013.9
20260508170007 57 146 7.0 9.6 0.00 0.06 0.00 61 1013.8
20260508165705 56 123 3.5 6.1 0.00 0.06 0.00 62 1013.7
20260508165106 56 101 2.6 7.0 0.00 0.06 0.00 60 1013.6
20260508164806 57 104 2.6 7.0 0.00 0.06 0.00 59 1013.6
20260508164206 57 108 3.5 7.0 0.00 0.06 0.00 61 1013.4
20260508163906 57 114 4.3 7.0 0.00 0.06 0.00 59 1013.7
20260508163606 56 113 2.6 6.1 0.00 0.06 0.00 60 1013.5
20260508163306 57 117 1.7 5.2 0.00 0.06 0.00 60 1013.5
20260508162706 56 118 3.5 6.1 0.00 0.06 0.00 60 1013.5
20260508162406 57 109 1.7 7.8 0.00 0.06 0.00 59 1013.2
20260508162107 57 116 2.6 7.8 0.00 0.06 0.00 58 1013.3
20260508161806 57 113 2.6 7.8 0.00 0.06 0.00 59 1013.4
20260508161507 56 109 5.2 7.8 0.00 0.06 0.00 57 1013.7
20260508161207 56 100 4.3 7.8 0.00 0.06 0.00 59 1013.7
20260508160906 54 99 3.5 6.1 0.00 0.06 0.00 64 1013.9
20260508160606 54 97 3.5 5.2 0.00 0.06 0.00 66 1013.9
20260508160306 54 103 2.6 6.1 0.00 0.06 0.00 64 1013.7
20260508160008 54 94 1.7 6.1 0.00 0.06 0.00 66 1014.0
20260508155706 54 103 2.6 7.0 0.00 0.06 0.00 65 1014.0
20260508155406 55 109 3.5 7.0 0.00 0.06 0.00 64 1013.8
20260508155106 55 110 3.5 7.0 0.00 0.06 0.00 62 1013.9
20260508154506 56 106 3.5 9.6 0.00 0.06 0.00 59 1013.8
20260508154206 55 108 2.6 9.6 0.00 0.06 0.00 60 1013.5
20260508153906 54 99 4.3 9.6 0.00 0.06 0.00 62 1013.6
20260508153606 54 96 1.7 9.6 0.00 0.06 0.00 64 1013.7
20260508153306 54 89 3.5 9.6 0.00 0.06 0.00 66 1013.8
20260508153006 54 83 6.1 9.6 0.00 0.06 0.00 64 1013.6
20260508152706 54 79 4.3 9.6 0.00 0.06 0.00 62 1013.6
20260508152406 54 89 5.2 9.6 0.00 0.06 0.00 63 1013.9
20260508152106 53 84 5.2 7.8 0.00 0.06 0.00 65 1013.7
20260508151806 53 92 3.5 7.8 0.00 0.06 0.00 67 1014.0
20260508151506 54 90 5.2 9.6 0.00 0.06 0.00 65 1014.2
20260508151207 54 91 5.2 9.6 0.00 0.06 0.00 64 1014.0
20260508150906 54 90 5.2 9.6 0.00 0.06 0.00 64 1014.0
20260508150606 54 94 2.6 9.6 0.00 0.06 0.00 65 1014.0
20260508150306 55 95 3.5 9.6 0.00 0.06 0.00 63 1014.0
20260508150011 55 102 3.5 9.6 0.00 0.06 0.00 60 1014.4
20260508145408 55 84 1.7 9.6 0.00 0.06 0.06 59 1014.3
20260508145106 54 80 3.5 9.6 0.00 0.06 0.06 58 1014.4
20260508144806 54 83 1.7 9.6 0.00 0.06 0.06 63 1014.3
20260508144506 54 92 5.2 7.8 0.00 0.06 0.06 62 1014.4
20260508143907 54 89 2.6 6.1 0.00 0.06 0.06 62 1014.5
20260508143006 54 73 2.6 7.0 0.00 0.06 0.06 65 1014.2
20260508142707 54 73 4.3 7.0 0.00 0.06 0.06 63 1014.5
20260508142406 54 76 3.5 7.0 0.00 0.06 0.06 62 1014.4
20260508142106 55 83 1.7 7.0 0.00 0.06 0.06 61 1014.5
20260508141806 55 87 3.5 7.0 0.00 0.06 0.06 62 1014.4
20260508141506 55 92 3.5 7.0 0.00 0.06 0.06 61 1014.0
20260508140906 54 86 1.7 9.6 0.00 0.06 0.06 65 1014.4
20260508140606 54 85 1.7 9.6 0.00 0.06 0.06 66 1014.2
20260508140307 54 83 3.5 9.6 0.00 0.06 0.06 65 1014.1
20260508140007 55 90 6.1 9.6 0.00 0.06 0.06 65 1013.9
20260508135706 54 92 3.5 6.1 0.00 0.06 0.06 61 1014.1
20260508135406 54 97 2.6 6.1 0.00 0.06 0.06 66 1014.1
20260508135106 55 100 1.7 7.0 0.00 0.06 0.06 66 1014.0
20260508134806 55 92 4.3 7.8 0.00 0.06 0.06 64 1014.1
20260508134506 55 99 3.5 7.8 0.00 0.06 0.06 63 1013.9
20260508134208 55 90 3.5 7.8 0.00 0.06 0.06 63 1014.0
20260508133906 55 90 3.5 7.8 0.00 0.06 0.06 65 1014.0
20260508133606 56 92 3.5 7.8 0.00 0.06 0.06 65 1013.9
20260508133006 56 97 2.6 7.0 0.00 0.06 0.06 64 1014.3
20260508132706 56 93 5.2 7.8 0.00 0.06 0.06 64 1014.0
20260508132406 55 91 2.6 7.8 0.00 0.06 0.06 64 1014.1
20260508132106 55 98 2.6 7.8 0.00 0.06 0.06 72 1014.0
20260508131806 56 108 3.5 6.1 0.00 0.06 0.06 66 1013.9
20260508131206 55 116 3.5 6.1 0.00 0.06 0.06 67 1014.1
20260508130906 55 114 1.7 5.2 0.00 0.06 0.06 71 1014.3
20260508130606 55 108 1.7 5.2 0.00 0.06 0.06 69 1014.2
20260508130008 55 113 1.7 5.2 0.00 0.06 0.06 74 1014.0
20260508125706 55 112 1.7 5.2 0.00 0.06 0.06 73 1014.3
20260508125406 54 106 1.7 5.2 0.00 0.06 0.06 73 1014.5
20260508125106 55 98 0.9 3.5 0.00 0.06 0.06 77 1014.2
20260508124805 56 86 0.9 3.5 0.00 0.06 0.06 76 1014.2
20260508124206 56 86 1.7 3.5 0.00 0.06 0.06 73 1014.2
20260508123906 56 93 1.7 3.5 0.00 0.06 0.06 72 1013.9
20260508123606 55 90 1.7 3.5 0.00 0.06 0.06 74 1014.1
20260508123306 56 79 1.7 3.5 0.00 0.06 0.06 75 1014.2
20260508123006 56 80 1.7 3.5 0.00 0.06 0.06 75 1014.0
20260508122705 56 90 2.6 3.5 0.00 0.06 0.06 73 1014.1
20260508122105 56 123 1.7 3.5 0.00 0.06 0.06 70 1013.8
20260508121206 56 138 1.7 9.6 0.00 0.06 0.06 75 1014.0
20260508120906 56 143 1.7 9.6 0.00 0.06 0.06 74 1013.9
20260508120605 57 146 3.5 9.6 0.00 0.06 0.06 71 1014.2
20260508120306 57 152 3.5 9.6 0.00 0.06 0.06 72 1014.1
20260508120006 57 161 6.1 9.6 0.00 0.06 0.06 71 1014.0
20260508115707 57 159 5.2 9.6 0.00 0.06 0.06 73 1013.9
20260508115406 57 160 5.2 13.0 0.00 0.06 0.06 72 1013.8
20260508114807 57 163 5.2 13.0 0.00 0.06 0.06 74 1013.6
20260508114507 57 160 7.0 13.0 0.00 0.06 0.06 73 1013.8
20260508114206 57 157 9.6 12.2 0.00 0.06 0.06 72 1013.7
20260508113907 57 153 7.8 12.2 0.00 0.06 0.06 72 1013.3
20260508113607 57 153 6.1 9.6 0.00 0.06 0.06 74 1013.5
20260508113307 57 147 4.3 9.6 0.00 0.06 0.06 76 1013.2
20260508112705 58 145 4.3 9.6 0.00 0.06 0.06 76 1013.5
20260508112406 58 149 5.2 9.6 0.00 0.06 0.06 75 1013.8
20260508112106 58 150 5.2 9.6 0.00 0.06 0.06 75 1013.5
20260508111806 58 149 4.3 9.6 0.00 0.06 0.06 75 1013.5
20260508111206 58 143 6.1 11.3 0.00 0.06 0.06 76 1013.5
20260508110906 58 147 7.0 11.3 0.00 0.06 0.06 75 1013.2
20260508110605 58 148 7.0 11.3 0.00 0.06 0.06 76 1013.4
20260508110306 58 158 6.1 11.3 0.00 0.06 0.06 77 1013.2
20260508110006 58 167 5.2 11.3 0.00 0.06 0.06 77 1013.1
20260508105706 58 165 6.1 11.3 0.00 0.06 0.06 80 1013.3
20260508105406 58 157 6.1 13.0 0.00 0.06 0.06 79 1013.1
20260508105105 58 154 6.1 13.0 0.00 0.06 0.06 79 1012.8
20260508104806 58 154 6.1 13.0 0.00 0.06 0.06 79 1013.0
20260508104506 58 163 6.1 13.0 0.00 0.06 0.06 78 1012.8
20260508104206 58 159 5.2 9.6 0.00 0.06 0.06 79 1012.7
20260508103906 58 157 3.5 7.8 0.00 0.06 0.06 80 1012.7
20260508103607 58 147 4.3 9.6 0.00 0.06 0.06 79 1012.7
20260508103306 58 141 3.5 9.6 0.00 0.06 0.06 80 1012.5
20260508103007 58 127 4.3 9.6 0.00 0.06 0.06 80 1012.7
20260508102706 58 122 4.3 7.8 0.00 0.06 0.06 81 1012.5
20260508102405 58 135 2.6 6.1 0.00 0.06 0.06 82 1012.5
20260508102106 58 141 4.3 6.1 0.00 0.06 0.06 81 1012.3
20260508101806 58 161 2.6 7.0 0.00 0.06 0.06 81 1012.3
20260508101506 58 161 2.6 11.3 0.00 0.06 0.06 81 1012.1
20260508100906 58 138 4.3 11.3 0.01 0.06 0.06 80 1012.1
20260508100606 58 128 5.2 11.3 0.01 0.06 0.06 80 1012.0
20260508100307 58 134 3.5 7.8 0.01 0.06 0.06 82 1012.1
20260508100006 58 141 3.5 7.8 0.01 0.06 0.06 81 1011.7
20260508095706 58 140 6.1 7.8 0.01 0.06 0.06 82 1011.6
20260508095406 58 138 6.1 9.6 0.01 0.06 0.06 82 1011.6
20260508095106 58 136 5.2 9.6 0.01 0.06 0.06 82 1011.7
20260508094806 58 146 3.5 11.3 0.01 0.06 0.06 83 1011.8
20260508094207 58 142 4.3 11.3 0.01 0.06 0.06 84 1011.7
20260508093906 58 150 4.3 11.3 0.01 0.06 0.06 85 1011.8
20260508093606 58 157 4.3 7.8 0.01 0.06 0.06 86 1011.9
20260508093306 58 166 3.5 9.6 0.01 0.06 0.06 88 1011.6
20260508093006 58 166 3.5 9.6 0.01 0.06 0.06 88 1011.7
20260508092708 58 168 3.5 9.6 0.01 0.06 0.06 88 1011.5
20260508092406 58 165 4.3 9.6 0.01 0.06 0.06 89 1011.6
20260508092106 58 162 5.2 9.6 0.01 0.06 0.06 89 1011.4
20260508091506 58 152 4.3 11.3 0.01 0.06 0.06 88 1011.3
20260508091206 58 167 7.0 11.3 0.01 0.06 0.06 85 1011.5
20260508090906 58 173 7.8 13.0 0.00 0.05 0.05 84 1011.2
20260508090606 59 179 7.0 13.0 0.00 0.05 0.05 87 1011.3
20260508090305 59 205 6.1 13.9 0.00 0.05 0.05 87 1011.0
20260508090006 59 182 3.5 14.8 0.00 0.05 0.05 86 1011.1
20260508085406 60 173 4.3 14.8 0.00 0.05 0.05 82 1010.6
20260508085106 61 168 8.7 14.8 0.00 0.05 0.05 80 1010.5
20260508084806 61 167 7.8 11.3 0.00 0.05 0.05 79 1010.5
20260508084506 61 165 6.1 9.6 0.00 0.05 0.05 80 1010.4
20260508084206 61 160 3.5 9.6 0.00 0.05 0.05 81 1010.2
20260508083906 61 164 5.2 9.6 0.00 0.05 0.05 81 1010.2
20260508083606 61 164 3.5 7.0 0.00 0.05 0.05 82 1010.3
20260508083307 61 157 3.5 7.0 0.00 0.05 0.05 82 1010.4
20260508083006 61 150 2.6 7.0 0.00 0.05 0.05 83 1010.0
20260508082706 60 157 2.6 6.1 0.00 0.05 0.05 85 1009.7
20260508082406 60 171 3.5 9.6 0.00 0.05 0.05 85 1010.0
20260508082106 60 177 2.6 9.6 0.00 0.05 0.05 86 1009.8
20260508081805 60 170 4.3 9.6 0.00 0.05 0.05 86 1009.9
20260508081505 60 166 5.2 11.3 0.00 0.05 0.05 85 1009.6
20260508081206 60 155 6.1 11.3 0.00 0.05 0.05 85 1009.8
20260508080906 61 152 3.5 11.3 0.00 0.05 0.05 85 1009.6
20260508080606 61 155 7.0 11.3 0.00 0.05 0.05 83 1009.7
20260508080306 61 157 6.1 11.3 0.00 0.05 0.05 83 1009.5
20260508080006 61 155 6.1 11.3 0.00 0.05 0.05 84 1009.6
20260508075706 61 151 3.5 11.3 0.00 0.05 0.05 83 1009.7
20260508075406 61 149 7.0 11.3 0.00 0.05 0.05 82 1009.4
20260508075106 61 146 5.2 11.3 0.00 0.05 0.05 83 1009.4
20260508074805 61 143 7.0 11.3 0.00 0.05 0.05 83 1009.2
20260508074506 61 149 7.0 9.6 0.00 0.05 0.05 83 1009.0
20260508074206 61 167 5.2 9.6 0.00 0.05 0.05 85 1009.2
20260508073906 61 176 5.2 13.0 0.00 0.05 0.05 86 1008.7
20260508073606 61 173 6.1 13.0 0.00 0.05 0.05 86 1008.9
20260508073306 61 172 4.3 13.0 0.00 0.05 0.05 86 1008.7
20260508073006 61 176 5.2 12.2 0.00 0.05 0.05 85 1008.9
20260508072706 61 176 5.2 12.2 0.00 0.05 0.05 86 1008.8
20260508072407 61 177 3.5 12.2 0.00 0.05 0.05 85 1008.8
20260508072105 61 181 7.8 12.2 0.00 0.05 0.05 84 1008.9
20260508071806 61 185 5.2 13.0 0.00 0.05 0.05 85 1008.6
20260508071506 62 182 5.2 13.0 0.00 0.05 0.05 84 1008.6
20260508071206 62 173 7.0 13.0 0.00 0.05 0.05 83 1008.3
20260508070905 62 167 7.0 14.8 0.00 0.05 0.05 83 1008.5
20260508070306 62 163 7.0 14.8 0.00 0.05 0.05 82 1008.4
20260508070006 62 161 7.0 14.8 0.00 0.05 0.05 81 1008.3
20260508065705 63 187 7.8 14.8 0.00 0.05 0.05 82 1008.5
20260508065405 63 176 6.1 18.2 0.00 0.05 0.05 82 1008.4
20260508065106 63 173 9.6 18.2 0.00 0.05 0.05 81 1008.2
20260508064806 63 168 8.7 18.2 0.00 0.05 0.05 81 1008.3
20260508064506 63 171 11.3 18.2 0.00 0.05 0.05 82 1008.4
20260508064207 63 183 9.6 15.6 0.00 0.05 0.05 82 1008.4
20260508063906 64 182 11.3 15.6 0.00 0.05 0.05 82 1008.5
20260508063606 64 181 7.0 15.6 0.00 0.05 0.05 83 1008.3
20260508063306 65 174 7.8 15.6 0.00 0.05 0.05 82 1008.2
20260508063007 66 162 12.2 15.6 0.00 0.05 0.05 80 1008.2
20260508062706 66 159 7.8 14.8 0.00 0.05 0.05 80 1007.8
20260508062406 65 163 8.7 14.8 0.00 0.05 0.05 80 1007.8
20260508061807 67 212 7.8 13.9 0.00 0.05 0.05 79 1007.8
20260508061506 67 203 4.3 13.9 0.00 0.05 0.05 79 1007.9
20260508061206 67 176 5.2 13.9 0.00 0.05 0.05 78 1007.7
20260508060906 67 164 6.1 13.9 0.00 0.05 0.05 78 1007.8
20260508060606 67 173 4.3 14.8 0.00 0.05 0.05 77 1007.7
20260508060307 67 173 7.0 14.8 0.00 0.05 0.05 75 1007.5
20260508055706 67 150 8.7 15.6 0.00 0.05 0.05 74 1007.4
20260508055406 67 149 7.0 15.6 0.00 0.05 0.05 75 1007.7
20260508054805 67 147 12.2 15.6 0.00 0.05 0.05 74 1007.7
20260508054506 68 144 7.0 12.2 0.00 0.05 0.05 74 1007.6
20260508054205 68 142 7.8 11.3 0.00 0.05 0.05 71 1007.9
20260508053905 68 139 7.0 13.0 0.00 0.05 0.05 71 1007.7
20260508053606 68 143 7.0 13.0 0.00 0.05 0.05 70 1007.9
20260508053306 68 148 7.0 13.0 0.00 0.05 0.05 70 1007.3
20260508053007 68 149 6.1 13.0 0.00 0.05 0.05 71 1007.6
20260508052705 69 160 4.3 13.9 0.00 0.05 0.05 71 1007.4
20260508052406 69 161 7.0 14.8 0.00 0.05 0.05 70 1007.3
20260508052106 69 175 7.0 14.8 0.00 0.05 0.05 70 1007.7
20260508051805 69 173 9.6 14.8 0.00 0.05 0.05 68 1007.6
20260508051506 69 166 7.8 14.8 0.00 0.05 0.05 69 1007.5
20260508050905 68 159 9.6 13.9 0.00 0.05 0.05 69 1007.5
20260508050605 68 153 7.0 13.9 0.00 0.05 0.05 70 1007.5
20260508050006 68 156 7.0 12.2 0.00 0.05 0.05 71 1007.5
20260508045706 68 166 7.0 12.2 0.00 0.05 0.05 72 1007.4
20260508045106 68 171 7.8 12.2 0.00 0.05 0.05 71 1007.7
20260508044806 68 163 6.1 12.2 0.00 0.05 0.05 72 1007.6
20260508044506 68 155 6.1 12.2 0.00 0.05 0.05 73 1007.6
20260508044206 68 149 7.0 12.2 0.00 0.05 0.05 74 1007.9
20260508043606 68 143 7.0 9.6 0.00 0.05 0.05 76 1007.9
20260508043306 67 131 2.6 6.1 0.00 0.05 0.05 78 1008.1
20260508043006 68 123 1.7 6.1 0.00 0.05 0.05 81 1008.1
20260508042405 68 98 2.6 5.2 0.00 0.05 0.05 82 1008.2
20260508042105 68 323 1.7 3.5 0.00 0.05 0.05 80 1008.4
20260508041806 68 319 1.7 3.5 0.00 0.05 0.05 79 1008.3
20260508041506 68 327 1.7 3.5 0.00 0.05 0.05 80 1008.3
20260508041206 68 342 2.6 3.5 0.00 0.05 0.05 82 1008.1
20260508040906 69 53 0.9 1.7 0.00 0.05 0.05 82 1008.1
20260508040606 69 74 0.0 1.7 0.00 0.05 0.05 82 1008.3
20260508040306 69 49 0.9 1.7 0.00 0.05 0.05 80 1008.0
20260508035705 68 79 0.0 3.5 0.00 0.05 0.05 80 1008.1
20260508035405 68 95 1.7 3.5 0.00 0.05 0.05 82 1008.1
20260508035106 68 104 1.7 5.2 0.00 0.05 0.05 82 1008.3
20260508034806 68 297 0.9 5.2 0.00 0.05 0.05 81 1008.4
20260508034506 68 302 1.7 5.2 0.00 0.05 0.05 80 1008.2
20260508034207 68 311 0.9 3.5 0.00 0.05 0.05 82 1008.2
20260508033905 68 306 1.7 3.5 0.00 0.05 0.05 82 1008.5
20260508033605 68 315 0.9 3.5 0.00 0.05 0.05 83 1008.4
20260508033306 68 319 2.6 3.5 0.00 0.05 0.05 82 1008.3
20260508033006 68 104 0.9 3.5 0.00 0.05 0.05 80 1008.6
20260508032706 68 67 0.9 3.5 0.00 0.05 0.05 83 1008.7
20260508032406 68 127 0.9 3.5 0.00 0.05 0.05 83 1008.6
20260508032105 68 119 2.6 3.5 0.00 0.05 0.05 83 1008.6
20260508031806 67 143 1.7 3.5 0.00 0.05 0.05 82 1008.5
20260508031507 67 54 1.7 3.5 0.00 0.05 0.05 83 1008.7
20260508031206 67 321 1.7 3.5 0.00 0.05 0.05 87 1008.9
20260508030906 67 332 0.9 3.5 0.00 0.05 0.05 87 1008.8
20260508030007 67 16 1.7 3.5 0.04 0.05 0.05 87 1008.9
20260508025705 67 37 0.9 3.5 0.04 0.05 0.05 87 1009.1
20260508025405 67 57 1.7 3.5 0.05 0.05 0.05 87 1009.1
20260508025106 67 54 1.7 3.5 0.05 0.05 0.05 87 1009.1
20260508024807 67 57 0.9 3.5 0.05 0.05 0.05 87 1009.2
20260508024505 66 74 1.7 3.5 0.05 0.05 0.05 88 1009.0
20260508024206 65 75 1.7 1.7 0.05 0.05 0.05 90 1008.9
20260508023906 65 78 0.0 3.5 0.05 0.05 0.05 90 1009.3
20260508023606 65 80 1.7 3.5 0.05 0.05 0.05 90 1009.2
20260508023006 65 98 1.7 3.5 0.05 0.05 0.05 90 1009.3
20260508022706 65 100 1.7 3.5 0.05 0.05 0.05 90 1009.2
20260508022406 65 107 1.7 5.2 0.05 0.05 0.05 90 1009.3
20260508022106 65 112 1.7 7.0 0.05 0.05 0.05 90 1009.4
20260508021807 65 129 2.6 7.8 0.05 0.05 0.05 89 1009.4
20260508021506 65 141 3.5 7.8 0.05 0.05 0.05 90 1009.3
20260508021207 65 147 3.5 7.8 0.05 0.05 0.05 89 1009.1
20260508020905 64 151 3.5 9.6 0.05 0.05 0.05 90 1009.2
20260508020607 64 156 4.3 9.6 0.05 0.05 0.05 90 1009.4
20260508020006 65 158 7.0 14.8 0.01 0.01 0.02 87 1009.4
20260508015706 67 156 5.2 14.8 0.01 0.01 0.01 84 1009.5
20260508015406 67 146 8.7 14.8 0.00 0.00 0.00 80 1009.2
20260508014806 68 148 5.2 9.6 0.00 0.00 0.00 77 1009.4
20260508014506 69 158 4.3 9.6 0.00 0.00 0.00 76 1009.2
20260508014205 69 155 3.5 11.3 0.00 0.00 0.00 76 1009.2
20260508013907 68 147 4.3 11.3 0.00 0.00 0.00 76 1009.2
20260508013306 69 151 4.3 11.3 0.00 0.00 0.00 77 1009.8
20260508013006 68 157 6.1 11.3 0.00 0.00 0.00 77 1009.5
20260508012705 68 162 7.0 11.3 0.00 0.00 0.00 77 1009.8
20260508012406 68 160 3.5 11.3 0.00 0.00 0.00 77 1009.5
20260508012106 68 158 4.3 12.2 0.00 0.00 0.00 76 1009.5
20260508011806 68 159 3.5 12.2 0.00 0.00 0.00 77 1009.4
20260508011507 68 168 5.2 12.2 0.00 0.00 0.00 77 1009.4
20260508011206 67 200 6.1 13.0 0.00 0.00 0.00 77 1009.3
20260508010906 67 199 7.0 13.0 0.00 0.00 0.00 78 1009.4
20260508010606 68 197 6.1 13.0 0.00 0.00 0.00 78 1009.3
20260508005706 68 185 6.1 11.3 0.00 0.00 0.00 77 1009.5
20260508005405 68 184 7.0 11.3 0.00 0.00 0.00 77 1009.5
20260508005106 68 182 7.0 11.3 0.00 0.00 0.00 76 1009.7
20260508004806 68 181 7.0 13.9 0.00 0.00 0.00 77 1009.4
20260508004505 68 190 5.2 13.9 0.00 0.00 0.00 77 1009.7
20260508003906 68 182 4.3 13.9 0.00 0.00 0.00 76 1009.8
20260508003606 68 182 4.3 13.9 0.00 0.00 0.00 76 1009.6
20260508003306 69 197 8.7 13.9 0.00 0.00 0.00 76 1009.5
20260508002405 69 270 5.2 9.6 0.00 0.00 0.00 75 1009.6
20260508001505 69 189 2.6 9.6 0.00 0.00 0.00 74 1009.3
20260508001206 69 197 5.2 9.6 0.00 0.00 0.00 74 1009.4
20260508000905 70 199 3.5 9.6 0.00 0.00 0.00 73 1009.4
20260508000605 70 227 3.5 9.6 0.00 0.00 0.00 73 1009.2
20260508000306 70 223 3.5 7.8 0.00 0.00 0.00 73 1009.3
20260508000005 70 278 1.7 7.0 0.00 0.00 0.00 72 1009.1
20260507235706 71 284 2.6 6.1 0.00 0.00 0.00 73 1009.2
20260507235406 72 315 1.7 5.2 0.00 0.00 0.00 72 1009.3
20260507235106 72 172 0.0 3.5 0.00 0.00 0.00 70 1009.3
20260507234807 71 175 0.9 3.5 0.00 0.00 0.00 71 1009.2
20260507234508 71 184 1.7 3.5 0.00 0.00 0.00 70 1009.2
20260507234208 71 201 0.9 3.5 0.00 0.00 0.00 70 1009.1
20260507233908 72 225 1.7 3.5 0.00 0.00 0.00 69 1009.3
20260507233608 72 209 0.9 3.5 0.00 0.00 0.00 70 1009.1
20260507233308 72 210 0.0 3.5 0.00 0.00 0.00 70 1009.1
20260507233008 72 207 0.0 3.5 0.00 0.00 0.00 70 1009.2
20260507232408 73 199 0.0 3.5 0.00 0.00 0.00 68 1009.4
20260507232108 72 197 0.0 3.5 0.00 0.00 0.00 69 1009.2
20260507231807 72 199 0.0 3.5 0.00 0.00 0.00 70 1008.9